Weather History for Billings, MT

Change the Weather History Date:

Tuesday, July 30, 2013

  Actual Average Record
Temperature  
Mean Temperature 68 °F 74 °F  
Max Temperature 79 °F 89 °F 102 °F (2000)
Min Temperature 56 °F 60 °F 46 °F (1971)
Degree Days  
Heating Degree Days 0 0  
Month to date heating degree days 0 12  
Since 1 June heating degree days 73 108  
Since 1 July heating degree days 0 12  
Cooling Degree Days 3 9  
Month to date cooling degree days 292 247  
Year to date cooling degree days 415 349  
Since 1 June cooling degree days 388 332  
Growing Degree Days 18 (Base 50)    
Moisture  
Dew Point 53 °F    
Average Humidity 65    
Maximum Humidity 90    
Minimum Humidity 39    
Precipitation  
Precipitation 0.05 in 0.03 in 0.45 in (1998)
Month to date precipitation 0.67 1.28  
Year to date precipitation 7.99 9.26  
Snow  
Snow 0.00 in 0.00 in 0.00 in (2002)
Month to date snowfall 0.0 0.0  
Since 1 June snowfall 0.0 0.0  
Since 1 July snowfall 0.0 0.0  
Snow Depth 0.00 in    
Sea Level Pressure  
Sea Level Pressure 30.09 in    
Wind  
Wind Speed 7 mph (NNE)    
Max Wind Speed 16 mph    
Max Gust Speed 21 mph    
Visibility 10 miles    
Events Rain , Thunderstorm    
T = Trace of Precipitation, MM = Missing Value Source: NWS Daily Summary

Daily Weather History Graph

Daily Weather History Graph

Search for Another Location

Airport:

Trip Planner

Search our weather history database for the weather conditions in past years. The results will help you decide how hot, cold, wet, or windy it might be!

Date:

Astronomy

Jul. 30, 2013 Rise Set
Actual Time 5:55 AM MDT 8:45 PM MDT
Civil Twilight 5:20 AM MDT 9:19 PM MDT
Nautical Twilight 4:36 AM MDT 10:03 PM MDT
Astronomical Twilight 3:44 AM MDT 10:55 PM MDT
Moon 12:17 AM MDT (7/30) 3:07 PM MDT (7/30)
Length of Visible Light 15h 59m
Length of Day
14h 50m
Last Quarter, 40% of the Moon is Illuminated
Jul 30
Last Quarter
Aug 6
New
Aug 14
First Quarter
Aug 20
Full
Aug 28
Last Quarter

Hourly Weather History & Observations

Time (MDT) Temp. Dew Point Humidity Pressure Visibility Wind Dir Wind Speed Gust Speed Precip Events Conditions
12:04 AM 64.9 °F 51.1 °F 61% 30.06 in 10.0 mi NNE 6.9 mph - N/A Thunderstorm Thunderstorm
12:34 AM 64.9 °F 52.0 °F 63% 30.09 in 10.0 mi North 9.2 mph - N/A   Mostly Cloudy
12:53 AM 64.0 °F 51.1 °F 63% 30.00 in 10.0 mi NE 11.5 mph - N/A   Mostly Cloudy
1:53 AM 63.0 °F 52.0 °F 67% 29.99 in 10.0 mi ENE 11.5 mph - N/A   Scattered Clouds
2:53 AM 61.0 °F 52.0 °F 72% 29.97 in 10.0 mi North 5.8 mph - N/A   Partly Cloudy
3:53 AM 59.0 °F 51.1 °F 75% 29.98 in 10.0 mi NNW 5.8 mph - N/A   Clear
4:53 AM 57.0 °F 52.0 °F 83% 30.00 in 10.0 mi NW 5.8 mph - N/A   Partly Cloudy
5:53 AM 61.0 °F 51.1 °F 70% 30.02 in 10.0 mi SSW 3.5 mph - N/A   Partly Cloudy
6:53 AM 57.0 °F 51.1 °F 81% 30.06 in 10.0 mi WNW 8.1 mph - N/A   Partly Cloudy
7:53 AM 60.1 °F 51.1 °F 72% 30.08 in 10.0 mi Calm Calm - N/A   Partly Cloudy
8:53 AM 62.1 °F 51.1 °F 67% 30.10 in 10.0 mi Calm Calm - N/A   Partly Cloudy
9:53 AM 66.9 °F 52.0 °F 59% 30.11 in 10.0 mi NE 4.6 mph - N/A   Partly Cloudy
10:53 AM 71.1 °F 52.0 °F 51% 30.09 in 10.0 mi NNW 5.8 mph - N/A   Partly Cloudy
11:53 AM 73.0 °F 52.0 °F 48% 30.10 in 10.0 mi Variable 4.6 mph - N/A   Scattered Clouds
12:53 PM 75.0 °F 52.0 °F 44% 30.09 in 10.0 mi NE 10.4 mph 16.1 mph N/A   Partly Cloudy
1:53 PM 75.0 °F 53.1 °F 46% 30.09 in 10.0 mi ENE 9.2 mph - N/A   Scattered Clouds
2:53 PM 77.0 °F 53.1 °F 43% 30.08 in 10.0 mi ENE 10.4 mph - N/A   Scattered Clouds
3:53 PM 78.1 °F 52.0 °F 40% 30.08 in 10.0 mi ENE 11.5 mph 17.3 mph N/A   Scattered Clouds
4:53 PM 77.0 °F 52.0 °F 42% 30.09 in 10.0 mi ENE 12.7 mph - N/A   Scattered Clouds
5:53 PM 75.0 °F 52.0 °F 44% 30.09 in 10.0 mi ENE 13.8 mph - N/A   Mostly Cloudy
6:53 PM 73.0 °F 52.0 °F 48% 30.11 in 10.0 mi ENE 9.2 mph - N/A   Overcast
7:26 PM 68.0 °F 57.0 °F 68% 30.20 in 6.0 mi NE 5.8 mph - 0.04 in Rain , Thunderstorm Thunderstorms and Rain
7:53 PM 68.0 °F 57.9 °F 70% 30.14 in 10.0 mi South 9.2 mph - 0.05 in Rain , Thunderstorm Light Thunderstorms and Rain
8:35 PM 64.0 °F 55.9 °F 75% 30.20 in 10.0 mi SSW 10.4 mph - 0.00 in   Mostly Cloudy
8:53 PM 64.0 °F 57.0 °F 78% 30.15 in 10.0 mi South 9.2 mph - 0.00 in   Scattered Clouds
9:53 PM 61.0 °F 57.0 °F 87% 30.17 in 10.0 mi WSW 6.9 mph - N/A   Scattered Clouds
10:53 PM 60.1 °F 57.9 °F 93% 30.17 in 10.0 mi SSW 4.6 mph - N/A   Clear
11:53 PM 59.0 °F 55.0 °F 87% 30.19 in 10.0 mi West 4.6 mph - N/A   Clear